This is the latest recevied weather packets stored in our database for station/object KA1STV. If no packets are shown the sender has not sent any weather packets the latest 10 day(s).
| Time | Temp. | Humidity | Pressure | Rain* | Wind** | Luminosity | Snow |
|---|---|---|---|---|---|---|---|
| 1777846253 | 11.67° C | 38% | 1008 hPa | 0 mm | - | 33 W/m² | - |
| 1777845949 | 11.67° C | 40% | 1008 hPa | 0 mm | - | 41 W/m² | - |
| 1777845646 | 11.67° C | 41% | 1008 hPa | 0 mm | - | 46 W/m² | - |
| 1777845343 | 11.67° C | 38% | 1007.9 hPa | 0 mm | - | 52 W/m² | - |
| 1777845040 | 11.67° C | 40% | 1008 hPa | 0 mm | - | 54 W/m² | - |
| 1777844739 | 11.11° C | 42% | 1008 hPa | 0 mm | - | 75 W/m² | - |
| 1777844435 | 11.11° C | 39% | 1008.1 hPa | 0 mm | - | 58 W/m² | - |
| 1777844133 | 10.56° C | 40% | 1008 hPa | 0 mm | - | 89 W/m² | - |
| 1777843830 | 11.11° C | 42% | 1008 hPa | 0 mm | - | 46 W/m² | - |
| 1777843527 | 11.11° C | 42% | 1008.1 hPa | 0 mm | - | 85 W/m² | - |
| 1777843225 | 10.56° C | 42% | 1008 hPa | 0 mm | - | 63 W/m² | - |
| 1777842921 | 10.56° C | 42% | 1008.1 hPa | 0 mm | - | 63 W/m² | - |
| 1777842617 | 10.56° C | 41% | 1007.7 hPa | 0 mm | - | 74 W/m² | - |
| 1777842314 | 11.11° C | 42% | 1007.9 hPa | 0 mm | - | 95 W/m² | - |
| 1777842009 | 11.11° C | 41% | 1008.1 hPa | 0 mm | - | 157 W/m² | - |
| 1777841706 | 11.11° C | 42% | 1008 hPa | 0 mm | - | 94 W/m² | - |
| 1777841403 | 11.67° C | 42% | 1007.8 hPa | 0 mm | - | 118 W/m² | - |
| 1777841100 | 11.67° C | 43% | 1007.8 hPa | 0 mm | - | 198 W/m² | - |
| 1777840796 | 11.11° C | 40% | 1008.1 hPa | 0 mm | - | 210 W/m² | - |
| 1777840494 | 11.67° C | 41% | 1008.1 hPa | 0 mm | - | 357 W/m² | - |
| 1777840190 | 11.11° C | 44% | 1008.1 hPa | 0 mm | - | 177 W/m² | - |
| 1777839889 | 10.56° C | 45% | 1007.9 hPa | 0 mm | - | 166 W/m² | - |
| 1777839587 | 10° C | 43% | 1008 hPa | 0 mm | - | 148 W/m² | - |
| 1777839284 | 10.56° C | 43% | 1008 hPa | 0 mm | - | 169 W/m² | - |
| 1777838981 | 10° C | 44% | 1007.9 hPa | 0 mm | - | 135 W/m² | - |
* Rain latest hour (hover to see other rain measurements)
** Current wind speed in m/s (hover to see current wind gust speed)